Simultaneous Nadir Overpasses (SNOs) Predictions

Prediction of SNOs between GOES-17 and NOAA-19 Satellite Orbit:

Table of predicted SNOs for the next 14.0 days since TLE Epoch: 10/1/2022
Index Date Time (GOES-17) GOES-17 Lat,Lon NOAA-19 Lat,Lon Distance(km) Time Diff (sec)
1 10/03/2022 05:21:29 0.05,-137.30 -0.54,-139.94 300.94 80
2 10/04/2022 05:12:15 0.04,-137.29 0.10,-137.04 28.11 80
3 10/05/2022 05:00:23 0.04,-137.27 0.79,-134.15 357.06 80
4 10/07/2022 17:18:13 -0.05,-137.23 0.33,-139.00 201.76 80
5 10/08/2022 17:08:59 -0.05,-137.21 -0.31,-136.10 127.27 80
6 10/09/2022 16:57:06 -0.04,-137.20 -0.96,-133.20 456.20 80
7 10/11/2022 05:26:49 0.05,-137.16 -0.80,-140.96 432.91 80
8 10/12/2022 05:14:56 0.04,-137.14 -0.16,-138.06 104.40 80
9 10/13/2022 05:05:42 0.04,-137.12 0.48,-135.15 223.94 80
